Date,TemperatureHighF,TemperatureAvgF,TemperatureLowF,DewpointHighF,DewpointAvgF,DewpointLowF,HumidityHigh,HumidityAvg,HumidityLow,PressureMaxIn,PressureMinIn,WindSpeedMaxMPH,WindSpeedAvgMPH,GustSpeedMaxMPH,PrecipitationSumIn
2013-12-1,55.5,45.9,40.1,40.0,33.7,26.0,86,63,50,30.16,29.85,1,0,5,0.00
2013-12-2,50.9,46.7,41.7,49.0,44.4,38.0,93,91,85,29.84,29.64,1,0,2,0.37
2013-12-3,54.5,52.5,50.5,53.0,50.6,49.0,94,93,93,29.72,29.65,2,0,4,0.30
2013-12-4,68.5,58.4,53.8,63.0,55.3,-99.9,95,92,81,29.84,29.72,3,-10,5,0.06
2013-12-5,69.9,66.5,63.3,67.0,64.5,62.0,94,93,89,29.88,29.78,5,1,10,0.74
2013-12-6,72.8,67.6,55.4,67.0,64.4,54.0,93,89,80,29.84,29.74,7,2,12,0.30
2013-12-7,55.1,44.7,39.9,53.0,42.4,38.0,94,91,85,30.12,29.83,3,0,7,0.02
2013-12-8,49.0,43.3,39.4,47.0,41.7,38.0,94,94,92,30.12,30.01,5,1,10,0.23
2013-12-9,48.7,43.6,39.1,47.0,42.1,38.0,94,94,94,30.03,29.85,2,0,5,1.24
2013-12-10,49.1,42.0,28.3,48.0,37.8,26.0,94,86,63,30.16,29.78,5,1,13,0.26
2013-12-11,51.4,37.0,24.6,35.0,27.7,23.0,94,73,38,30.28,30.14,1,0,4,0.01
2013-12-12,45.2,34.6,27.9,29.0,23.8,19.0,86,67,44,30.27,30.17,4,0,6,0.00
2013-12-13,55.1,39.0,23.7,29.0,22.4,16.0,88,56,22,30.21,30.00,2,0,4,0.00
2013-12-14,48.3,45.8,43.1,47.0,41.2,28.0,94,85,54,30.01,29.65,3,0,6,0.78
2013-12-15,49.4,37.8,29.5,48.0,33.9,27.0,94,86,74,30.01,29.65,4,1,12,0.00
2013-12-16,51.8,38.6,27.8,33.0,29.6,26.0,93,73,44,30.09,30.00,2,0,6,0.00
2013-12-17,58.9,45.0,29.4,38.0,33.4,27.0,92,66,41,30.05,29.90,8,1,10,0.00
2013-12-18,51.0,40.7,32.1,29.0,23.0,20.0,72,51,30,30.14,29.99,3,0,8,0.00
2013-12-19,61.1,44.6,28.8,30.0,25.5,21.0,82,52,24,30.16,30.02,2,0,6,0.00
2013-12-20,60.3,50.3,39.2,51.0,41.6,30.0,87,72,52,30.05,29.94,5,0,5,0.00
2013-12-21,67.8,59.2,51.7,64.0,56.6,49.0,93,91,87,29.93,29.75,9,1,9,0.03
2013-12-22,68.3,60.7,56.1,64.0,58.3,54.0,93,91,86,29.87,29.69,5,1,11,3.42
2013-12-23,57.0,47.4,33.9,55.0,44.5,31.0,94,89,84,30.05,29.83,4,0,8,0.00
2013-12-24,39.9,32.2,25.1,30.0,25.1,20.0,90,76,56,30.22,30.05,5,1,8,0.00
2013-12-25,42.5,33.3,24.0,24.0,20.7,17.0,83,61,44,30.32,30.18,4,0,6,0.00
2013-12-26,53.1,39.4,27.3,30.0,26.2,20.0,89,62,38,30.21,30.09,3,0,7,0.00
2013-12-27,50.7,38.4,27.8,29.0,26.8,23.0,88,66,39,30.29,30.15,4,0,7,0.00
2013-12-28,44.8,38.4,30.8,38.0,32.7,28.0,93,80,57,30.23,29.84,4,1,10,0.66
2013-12-29,50.7,43.8,39.3,45.0,41.2,38.0,93,90,79,29.87,29.68,4,1,8,0.13
2013-12-30,46.5,41.5,37.7,42.0,38.6,35.0,94,89,81,30.03,29.86,2,0,5,0.00
2013-12-31,45.9,37.9,31.3,35.0,29.6,24.0,90,74,43,30.20,30.02,3,0,6,0.00